Regional Weather Roundup
Issued by NWS

Home | Current Version | Previous Version | Text Only | Print | Product List | Glossary Off
Versions: 1 2 3 4 5 6 7 8 9 10 11 12 13 14 15 16 17 18 19 20 21 22 23 24 25 26 27 28 29 30 31 32 33 34 35 36 37 38 39 40 41 42 43 44 45 46 47 48 49 50

000
ASUS43 KFSD 280810
RWRSD

WEATHER ROUNDUP FOR SOUTH DAKOTA
NATIONAL WEATHER SERVICE SIOUX FALLS SD
300 AM CDT SAT MAR 28 2015

NOTE: "FAIR" INDICATES FEW OR NO CLOUDS BELOW 12,000 FEET WITH NO
SIGNIFICANT WEATHER AND/OR OBSTRUCTIONS TO VISIBILITY.


SDZ001>005-009-010-012>017-280900-
NORTHWEST AND NORTH CENTRAL SOUTH DAKOTA

CITY           SKY/WX    TMP DP  RH WIND       PRES   REMARKS
BUFFALO          N/A     39  32  76 SE8       29.88S
FAITH            N/A     38  32  79 S9        29.95S
MOBRIDGE       CLEAR     27  25  92 E9        29.96R WCI  18
$$

SDZ012>016-024>037-041>051-057-063-072>074-280900-
SOUTHWEST AND SOUTH CENTRAL SOUTH DAKOTA

CITY           SKY/WX    TMP DP  RH WIND       PRES   REMARKS
RAPID CTY ARPT CLEAR     39  31  72 W3        29.96S
PIERRE         CLEAR     26  24  92 E3        29.97S
CUSTER         CLEAR     39  25  57 NW3       30.02S
ELLSWORTH AFB  CLEAR     39  30  71 W5        29.95F
PHILIP         CLEAR     31  28  89 NW3       29.96F
PINE RIDGE     CLEAR     32  28  85 E6        29.97S WCI  26
SPEARFISH      FAIR      39  32  75 SW6       29.96F
WINNER         CLOUDY    37  30  75 S7        29.98R
$$

SDZ004>011-016>023-039-040-280900-
NORTHEAST SOUTH DAKOTA

CITY           SKY/WX    TMP DP  RH WIND       PRES   REMARKS
ABERDEEN       CLOUDY    32  26  78 SE9       30.06R WCI  24
WATERTOWN      CLOUDY    29  23  78 SE12      30.05F WCI  19
SISSETON         N/A     29  25  85 S9        30.09S WCI  20
$$

SDZ017-020-022-023-036>040-048>070-280900-
SOUTHEAST SOUTH DAKOTA

CITY           SKY/WX    TMP DP  RH WIND       PRES   REMARKS
SIOUX FALLS    CLOUDY    30  24  78 SE10      30.08S WCI  21
HURON          CLEAR     27  23  85 SE8       30.05R WCI  19
CHAMBERLAIN    CLEAR     26  24  95 E6        30.00S WCI  19
MITCHELL       CLEAR     28  24  85 SE9       30.05R WCI  19
YANKTON        CLEAR     28  23  80 SE7       30.07S WCI  21
$$

ABBREVIATIONS USED IN REMARKS
   TC - TEMPERATURE IN CELSIUS
  WCI - WIND CHILL INDEX
   HX - HEAT INDEX
  VSB - VISIBILITY




USA.gov is the U.S. government's official web portal to all federal, state and local government web resources and services.